Other Surface Observations
Issued by NWS

Home | Current Version | Previous Version | Text Only | Print | Product List | Glossary On
Versions: 1 2 3 4 5 6 7 8 9 10 11 12 13 14 15 16 17 18 19 20 21 22 23 24 25 26 27 28 29 30 31 32 33 34 35 36 37 38 39 40 41 42 43 44 45 46 47 48 49 50
000
SXUS52 KTAE 270118
OSOTAE
OSOTAE
North Florida/South Alabama/Southwest Georgia Weather Roundup
National Weather Service Tallahassee Florida
800 PM EST MON JAN 26 2015

Note: "fair" indicates few or no clouds below 12,000 feet with no
significant weather and/or obstructions to visibility.

!FLZ017-115-028-034-025-270200
...North Florida...

CITY           SKY/WX    TMP DP  RH WIND       PRES   REMARKS
TALLAHASSEE    CLEAR     49  35  58 NW7       29.99R
APALACHICOLA   CLEAR     51  39  63 NW7       30.00R
PERRY          CLEAR     48  38  66 NW6       29.97R
CROSS CITY       N/A     49  40  71 NW7       29.94R
JACKSONVILLE   MOCLDY    50  36  58 W12G22    29.89R
$$

!FLZ112-006-005-002-011-270200
...Florida Panhandle...

CITY           SKY/WX    TMP DP  RH WIND       PRES   REMARKS
MARIANNA       CLEAR     46  36  68 NW6       30.01R WCI  43
BONIFAY        FAIR      44  36  73 CALM      30.04R
PANAMA CITY NW FAIR      47  37  68 NW5       30.02R WCI  45
TYNDALL AFB    CLEAR     51  38  59 N8        30.02R
TYND DRONE APT FAIR      51  39  62 NW7G16    30.00R
DE FUNIAK SPR  FAIR      45  34  67 NW5       30.03R WCI  42
EGLIN AFB      CLEAR     46  34  62 N5        30.03R WCI  44
DESTIN         CLEAR     51  36  56 NW12      30.04R
HURLBURT       CLEAR     49  31  50 NW5       30.03R
CRESTVIEW      CLEAR     47  34  60 CALM      30.05R
PENSACOLA      CLEAR     48  33  56 NW3       30.04S
$$

!ALZ063-066-270200
...South Alabama...

CITY           SKY/WX    TMP DP  RH WIND       PRES   REMARKS
DOTHAN         CLEAR     43  33  68 W7        30.03R WCI  39
OZARK CAIRNS   CLEAR     43  33  65 W5        30.01R WCI  41
FT RUCKER HELI CLEAR     40  34  79 CALM      30.01R
RUCKER HELI 3  FAIR      43  34  70 W3        30.03R
RUCKER HELI 2  FAIR      42  34  73 W3        30.01R
FLORALA APT    FAIR      42  35  76 CALM      30.04R
ANDALUSIA      CLEAR     48  33  56 NW3       30.02S
TROY           CLEAR     54  33  45 W3        30.01S
EUFALA         FAIR      38  32  79 CALM      29.99R
MOBILE         CLEAR     46  31  55 SW6       30.07R WCI  43
$$

!GAZ120>161-270200
...Southwest and South Central Georgia...

CITY           SKY/WX    TMP DP  RH WIND       PRES   REMARKS
THOMASVILLE    FAIR      46  36  66 NW9       29.98R WCI  42
BAINBRIDGE     CLEAR     46  37  71 NW7       30.01R WCI  43
MOODY AFB      MOCLDY    47  35  62 NW15      29.95R WCI  41
VALDOSTA       CLEAR     47  36  65 VRB5      29.95R WCI  45
MOULTRIE       CLEAR     45  36  70 NW9       29.97R WCI  40
BLAKELY        CLEAR     45  36  70 CALM      30.01R
ALBANY         CLEAR     43  32  65 NW6       30.01R WCI  39
TIFTON         FAIR      43  32  65 W12       29.96R WCI  37
FITZGERALD     FAIR      45  34  65 W10G16    29.96R WCI  39
CORDELE        FAIR      44  32  64 NW9       29.97R WCI  39
AMERICUS       FAIR      39  32  75 NW3       29.98R
HOMERVILLE     MOCLDY    50  37  62 NW17G28   29.94R WCI  44
$$

!GMZ750-755-770-775-270200
...Coastal and Buoy Obs...

STATION/POSITION TIME  TEMP    WIND        PRES    VSBY  WAVE
                       AIR SEA DIR/SP/G                  HT/PER
                 (UTC) (F)     (DEG/KT/KT) (MB)    (MI)  (FT/S)
KEATON BEACH     0100   51     330/  7/ 10 1014.7R
CEDAR KEY        0100   56     310/  9/ 13 1014.3R
C TOWER          0100   55     320/ 20/ 22 1015.1R
APALACHICOLA BUO 0100   60 68  310/ 21/ 27 1014.9R         8/ 9
PANAMA CITY BUOY 0031   59 70  320/ 19/ 23 1016.6R         7/ 8
MOBILE BUOY      NOT AVBL
ORANGE BCH AL BU 0100   57 62  310/ 12/ 14 1017.4R         3/ 8
$$



USA.gov is the U.S. government's official web portal to all federal, state and local government web resources and services.